Time,TemperatureF,DewpointF,PressureIn,WindDirection,WindDirectionDegrees,WindSpeedMPH,WindSpeedGustMPH,Humidity,HourlyPrecipIn,Conditions,Clouds,dailyrainin,SoftwareType,DateUTC
2013-06-01 00:00:00,47.0,41.0,30.24,North,-999,-999.0,-999.0,80,-99.99,,,-99.99,,2013-05-31 23:00:00,
2013-06-01 00:42:00,47.0,41.0,30.24,North,-999,-999.0,-999.0,80,-99.99,,,-99.99,,2013-05-31 23:42:00,
2013-06-01 00:52:00,47.0,41.0,30.24,North,-999,-999.0,-999.0,80,-99.99,,,-99.99,,2013-05-31 23:52:00,
2013-06-01 01:00:00,45.0,40.0,30.23,North,-999,-999.0,-999.0,84,-99.99,,,-99.99,,2013-06-01 00:00:00,
2013-06-01 01:41:00,45.0,40.0,30.23,North,-999,-999.0,-999.0,84,-99.99,,,-99.99,,2013-06-01 00:41:00,
2013-06-01 01:51:00,45.0,40.0,30.23,North,-999,-999.0,-999.0,84,-99.99,,,-99.99,,2013-06-01 00:51:00,
2013-06-01 02:00:00,42.0,39.0,30.23,North,-999,-999.0,-999.0,87,-99.99,,,-99.99,,2013-06-01 01:00:00,
2013-06-01 02:41:00,42.0,39.0,30.23,North,-999,-999.0,-999.0,87,-99.99,,,-99.99,,2013-06-01 01:41:00,
2013-06-01 02:52:00,42.0,39.0,30.23,North,-999,-999.0,-999.0,87,-99.99,,,-99.99,,2013-06-01 01:52:00,
2013-06-01 03:00:00,42.0,39.0,30.23,North,-999,-999.0,-999.0,88,-99.99,,,-99.99,,2013-06-01 02:00:00,
2013-06-01 03:31:00,42.0,39.0,30.23,North,-999,-999.0,-999.0,88,-99.99,,,-99.99,,2013-06-01 02:31:00,
2013-06-01 03:41:00,42.0,39.0,30.23,North,-999,-999.0,-999.0,88,-99.99,,,-99.99,,2013-06-01 02:41:00,
2013-06-01 03:51:00,42.0,39.0,30.23,North,-999,-999.0,-999.0,88,-99.99,,,-99.99,,2013-06-01 02:51:00,
2013-06-01 04:00:00,41.0,39.0,30.24,North,-999,-999.0,-999.0,90,-99.99,,,-99.99,,2013-06-01 03:00:00,
2013-06-01 04:43:00,41.0,39.0,30.24,North,-999,-999.0,-999.0,90,-99.99,,,-99.99,,2013-06-01 03:43:00,
2013-06-01 04:53:00,41.0,39.0,30.24,North,-999,-999.0,-999.0,90,-99.99,,,-99.99,,2013-06-01 03:53:00,
2013-06-01 05:00:00,42.0,39.0,30.23,North,-999,-999.0,-999.0,91,-99.99,,,-99.99,,2013-06-01 04:00:00,
2013-06-01 05:42:00,42.0,39.0,30.23,North,-999,-999.0,-999.0,91,-99.99,,,-99.99,,2013-06-01 04:42:00,
2013-06-01 05:53:00,42.0,39.0,30.23,North,-999,-999.0,-999.0,91,-99.99,,,-99.99,,2013-06-01 04:53:00,
2013-06-01 06:00:00,43.0,40.0,30.24,North,-999,-999.0,-999.0,89,-99.99,,,-99.99,,2013-06-01 05:00:00,
2013-06-01 06:32:00,43.0,40.0,30.24,North,-999,-999.0,-999.0,89,-99.99,,,-99.99,,2013-06-01 05:32:00,
2013-06-01 06:42:00,43.0,40.0,30.24,North,-999,-999.0,-999.0,89,-99.99,,,-99.99,,2013-06-01 05:42:00,
2013-06-01 06:52:00,43.0,40.0,30.24,North,-999,-999.0,-999.0,89,-99.99,,,-99.99,,2013-06-01 05:52:00,
2013-06-01 07:00:00,46.0,42.0,30.24,North,-999,-999.0,-999.0,85,-99.99,,,-99.99,,2013-06-01 06:00:00,
2013-06-01 07:41:00,46.0,42.0,30.24,North,-999,-999.0,-999.0,85,-99.99,,,-99.99,,2013-06-01 06:41:00,
2013-06-01 07:51:00,46.0,42.0,30.24,North,-999,-999.0,-999.0,85,-99.99,,,-99.99,,2013-06-01 06:51:00,
2013-06-01 08:00:00,46.0,43.0,30.24,North,-999,-999.0,-999.0,90,-99.99,,,-99.99,,2013-06-01 07:00:00,
2013-06-01 08:41:00,46.0,43.0,30.24,North,-999,-999.0,-999.0,90,-99.99,,,-99.99,,2013-06-01 07:41:00,
2013-06-01 08:52:00,46.0,43.0,30.24,North,-999,-999.0,-999.0,90,-99.99,,,-99.99,,2013-06-01 07:52:00,
2013-06-01 09:00:00,50.0,44.0,30.21,North,-999,-999.0,-999.0,79,-99.99,,,-99.99,,2013-06-01 08:00:00,
2013-06-01 09:42:00,50.0,44.0,30.21,North,-999,-999.0,-999.0,79,-99.99,,,-99.99,,2013-06-01 08:42:00,
2013-06-01 09:51:00,50.0,44.0,30.21,North,-999,-999.0,-999.0,79,-99.99,,,-99.99,,2013-06-01 08:51:00,
2013-06-01 10:00:00,49.0,47.0,30.20,North,-999,-999.0,-999.0,93,-99.99,,,-99.99,,2013-06-01 09:00:00,
2013-06-01 10:32:00,49.0,47.0,30.20,North,-999,-999.0,-999.0,93,-99.99,,,-99.99,,2013-06-01 09:32:00,
2013-06-01 10:42:00,49.0,47.0,30.20,North,-999,-999.0,-999.0,93,-99.99,,,-99.99,,2013-06-01 09:42:00,
2013-06-01 10:53:00,49.0,47.0,30.20,North,-999,-999.0,-999.0,93,-99.99,,,-99.99,,2013-06-01 09:53:00,
2013-06-01 11:00:00,52.0,47.0,30.20,North,-999,-999.0,-999.0,82,-99.99,,,-99.99,,2013-06-01 10:00:00,
2013-06-01 11:42:00,52.0,47.0,30.20,North,-999,-999.0,-999.0,82,-99.99,,,-99.99,,2013-06-01 10:42:00,
2013-06-01 11:52:00,52.0,47.0,30.20,North,-999,-999.0,-999.0,82,-99.99,,,-99.99,,2013-06-01 10:52:00,
2013-06-01 12:00:00,51.0,44.0,30.21,North,-999,-999.0,-999.0,77,-99.99,,,-99.99,,2013-06-01 11:00:00,
2013-06-01 12:42:00,51.0,44.0,30.21,North,-999,-999.0,-999.0,77,-99.99,,,-99.99,,2013-06-01 11:42:00,
2013-06-01 12:52:00,51.0,44.0,30.21,North,-999,-999.0,-999.0,77,-99.99,,,-99.99,,2013-06-01 11:52:00,
2013-06-01 13:00:00,51.0,40.0,30.23,North,-999,-999.0,-999.0,66,-99.99,,,-99.99,,2013-06-01 12:00:00,
2013-06-01 13:41:00,51.0,40.0,30.23,North,-999,-999.0,-999.0,66,-99.99,,,-99.99,,2013-06-01 12:41:00,
2013-06-01 13:52:00,51.0,40.0,30.23,North,-999,-999.0,-999.0,66,-99.99,,,-99.99,,2013-06-01 12:52:00,
2013-06-01 14:00:00,51.0,43.0,30.24,North,-999,-999.0,-999.0,74,-99.99,,,-99.99,,2013-06-01 13:00:00,
2013-06-01 14:42:00,51.0,43.0,30.24,North,-999,-999.0,-999.0,74,-99.99,,,-99.99,,2013-06-01 13:42:00,
2013-06-01 14:52:00,51.0,43.0,30.24,North,-999,-999.0,-999.0,74,-99.99,,,-99.99,,2013-06-01 13:52:00,
2013-06-01 15:00:00,53.0,41.0,30.24,North,-999,-999.0,-999.0,62,-99.99,,,-99.99,,2013-06-01 14:00:00,
2013-06-01 15:32:00,53.0,41.0,30.24,North,-999,-999.0,-999.0,62,-99.99,,,-99.99,,2013-06-01 14:32:00,
2013-06-01 15:42:00,53.0,41.0,30.24,North,-999,-999.0,-999.0,62,-99.99,,,-99.99,,2013-06-01 14:42:00,
2013-06-01 15:52:00,53.0,41.0,30.24,North,-999,-999.0,-999.0,62,-99.99,,,-99.99,,2013-06-01 14:52:00,
2013-06-01 16:00:00,54.0,39.0,30.25,North,-999,-999.0,-999.0,57,-99.99,,,-99.99,,2013-06-01 15:00:00,
2013-06-01 16:42:00,54.0,39.0,30.25,North,-999,-999.0,-999.0,57,-99.99,,,-99.99,,2013-06-01 15:42:00,
2013-06-01 16:53:00,54.0,39.0,30.25,North,-999,-999.0,-999.0,57,-99.99,,,-99.99,,2013-06-01 15:53:00,
2013-06-01 17:00:00,51.0,41.0,30.26,North,-999,-999.0,-999.0,69,-99.99,,,-99.99,,2013-06-01 16:00:00,
2013-06-01 17:42:00,51.0,41.0,30.26,North,-999,-999.0,-999.0,69,-99.99,,,-99.99,,2013-06-01 16:42:00,
2013-06-01 17:52:00,51.0,41.0,30.26,North,-999,-999.0,-999.0,69,-99.99,,,-99.99,,2013-06-01 16:52:00,
2013-06-01 18:00:00,51.0,42.0,30.28,North,-999,-999.0,-999.0,71,-99.99,,,-99.99,,2013-06-01 17:00:00,
2013-06-01 18:42:00,51.0,42.0,30.28,North,-999,-999.0,-999.0,71,-99.99,,,-99.99,,2013-06-01 17:42:00,
2013-06-01 18:52:00,51.0,42.0,30.28,North,-999,-999.0,-999.0,71,-99.99,,,-99.99,,2013-06-01 17:52:00,
2013-06-01 19:00:00,50.0,41.0,30.28,North,-999,-999.0,-999.0,70,-99.99,,,-99.99,,2013-06-01 18:00:00,
2013-06-01 19:41:00,50.0,41.0,30.28,North,-999,-999.0,-999.0,70,-99.99,,,-99.99,,2013-06-01 18:41:00,
2013-06-01 19:51:00,50.0,41.0,30.28,North,-999,-999.0,-999.0,70,-99.99,,,-99.99,,2013-06-01 18:51:00,
2013-06-01 20:00:00,50.0,41.0,30.29,North,-999,-999.0,-999.0,73,-99.99,,,-99.99,,2013-06-01 19:00:00,
2013-06-01 20:41:00,50.0,41.0,30.29,North,-999,-999.0,-999.0,73,-99.99,,,-99.99,,2013-06-01 19:41:00,
2013-06-01 20:52:00,50.0,41.0,30.29,North,-999,-999.0,-999.0,73,-99.99,,,-99.99,,2013-06-01 19:52:00,
2013-06-01 21:00:00,49.0,42.0,30.30,North,-999,-999.0,-999.0,75,-99.99,,,-99.99,,2013-06-01 20:00:00,
2013-06-01 21:41:00,49.0,42.0,30.30,North,-999,-999.0,-999.0,75,-99.99,,,-99.99,,2013-06-01 20:41:00,
2013-06-01 21:51:00,49.0,42.0,30.30,North,-999,-999.0,-999.0,75,-99.99,,,-99.99,,2013-06-01 20:51:00,
2013-06-01 22:00:00,49.0,43.0,30.31,North,-999,-999.0,-999.0,79,-99.99,,,-99.99,,2013-06-01 21:00:00,
2013-06-01 22:42:00,49.0,43.0,30.31,North,-999,-999.0,-999.0,79,-99.99,,,-99.99,,2013-06-01 21:42:00,
2013-06-01 22:53:00,49.0,43.0,30.31,North,-999,-999.0,-999.0,79,-99.99,,,-99.99,,2013-06-01 21:53:00,
2013-06-01 23:00:00,49.0,42.0,30.32,North,-999,-999.0,-999.0,77,-99.99,,,-99.99,,2013-06-01 22:00:00,
2013-06-01 23:42:00,49.0,42.0,30.32,North,-999,-999.0,-999.0,77,-99.99,,,-99.99,,2013-06-01 22:42:00,
2013-06-01 23:52:00,49.0,42.0,30.32,North,-999,-999.0,-999.0,77,-99.99,,,-99.99,,2013-06-01 22:52:00,